Location: Casilda
(33.0440°S, 61.1680°W)
Time: 16:50:59
(UTC-03:00)

ISS - Pass Details

Date: 04 March 2021
Orbit: 417 x 422 km, 51.6° (Epoch: 27 February)

Event Time Altitude Azimuth Distance (km) Brightness Sun altitude
Rises 21:10:20 0° 225° (SW) 2,399 1.3 -19.9°
Reaches altitude 10° 21:12:28 10° 223° (SW) 1,527 0.0 -20.3°
Enters shadow 21:15:37 70° 188° (S) 456 -3.6 -20.9°
